Date,TemperatureHighF,TemperatureAvgF,TemperatureLowF,DewpointHighF,DewpointAvgF,DewpointLowF,HumidityHigh,HumidityAvg,HumidityLow,PressureMaxIn,PressureMinIn,WindSpeedMaxMPH,WindSpeedAvgMPH,GustSpeedMaxMPH,PrecipitationSumIn
2013-6-1,88.0,75.0,57.4,66.0,60.7,55.9,97,65,35,28.35,28.22,16,3,16,0.00
2013-6-2,85.8,75.0,63.1,67.8,64.2,56.8,97,70,47,28.23,28.08,23,3,23,0.11
2013-6-3,70.3,62.2,48.9,62.8,54.8,45.0,99,79,47,28.26,28.16,16,4,16,0.00
2013-6-4,67.5,55.4,45.3,45.0,36.5,22.3,88,54,20,28.46,28.25,25,8,25,0.00
2013-6-5,73.4,56.7,37.2,47.5,40.7,27.9,99,61,20,28.51,28.40,11,2,11,0.08
2013-6-6,68.4,57.3,50.9,52.9,47.7,34.5,95,74,33,28.46,28.32,15,4,15,0.28
2013-6-7,56.1,54.4,52.9,55.6,53.4,50.5,99,96,89,28.32,28.06,22,5,22,1.02
2013-6-8,72.0,59.4,51.8,57.6,54.4,51.3,99,85,56,28.39,28.03,14,4,14,0.37
2013-6-9,77.0,61.5,46.2,59.4,51.4,45.5,99,74,41,28.53,28.38,13,3,13,0.00
2013-6-10,60.4,56.5,49.5,60.1,55.8,49.3,99,98,94,28.53,28.18,14,4,14,1.09
2013-6-11,72.0,61.5,56.8,65.1,58.6,53.6,99,91,69,28.18,27.94,17,4,17,0.54
2013-6-12,68.0,58.9,49.6,54.5,50.3,32.9,97,74,51,28.21,28.00,101,8,101,0.00
2013-6-13,55.2,51.4,46.0,54.3,50.9,45.3,99,98,96,28.19,27.94,21,4,21,1.54
2013-6-14,68.2,55.4,47.7,56.8,51.9,45.1,99,89,53,28.24,27.99,15,4,15,0.35
2013-6-15,74.1,60.5,46.2,56.1,46.3,38.1,99,66,30,28.32,28.23,17,4,17,0.01
2013-6-16,72.9,59.7,43.5,59.9,52.2,43.0,99,79,46,28.32,28.06,14,3,14,0.00
2013-6-17,82.0,65.2,53.8,61.9,56.3,47.1,99,78,31,28.28,28.16,35,3,35,0.17
2013-6-18,73.0,59.5,50.4,63.3,55.5,45.0,99,87,64,28.29,28.21,13,2,13,0.24
2013-6-19,71.6,57.4,45.0,52.0,43.3,36.0,99,66,29,28.51,28.27,14,4,14,0.00
2013-6-20,77.4,59.8,39.9,53.4,46.4,39.7,99,67,31,28.57,28.50,15,2,15,0.00
2013-6-21,79.3,65.4,48.9,64.2,57.0,48.7,99,77,39,28.59,28.54,13,2,13,0.00
2013-6-22,84.2,69.6,52.9,63.1,57.7,52.3,99,71,37,28.56,28.42,11,2,11,0.00
2013-6-23,90.5,78.0,65.8,66.9,63.4,57.6,88,63,37,28.48,28.36,15,3,15,0.00
2013-6-24,88.2,71.9,61.2,69.3,63.9,56.3,97,78,43,28.40,28.30,22,3,22,0.12
2013-6-25,87.3,71.9,57.4,68.9,63.0,57.0,99,77,41,28.35,28.14,14,2,14,0.05
2013-6-26,79.5,70.5,62.1,67.1,64.1,60.6,98,81,59,28.19,28.13,14,2,14,0.00
2013-6-27,81.0,69.2,57.6,71.1,63.7,57.2,99,84,54,28.19,27.89,10,2,10,0.44
2013-6-28,79.7,71.1,63.9,66.9,63.1,60.1,99,78,55,27.90,27.76,27,4,27,1.19
2013-6-29,79.9,68.4,57.6,63.3,59.9,54.7,99,77,45,28.05,27.84,14,2,14,0.01
2013-6-30,82.0,68.3,58.5,66.9,62.6,57.9,99,84,52,28.27,28.05,11,3,11,0.13